Regional Weather Roundup
Issued by NWS

Home | Current Version | Previous Version | Text Only | Print | Product List | Glossary Off
Versions: 1 2 3 4 5 6 7 8 9 10 11 12 13 14 15 16 17 18 19 20 21 22 23 24 25 26 27 28 29 30 31 32 33 34 35 36 37 38 39 40 41 42 43 44 45 46 47 48 49 50

000
ASUS45 KABQ 262101
RWRNM
NEW MEXICO REGIONAL WEATHER ROUNDUP
NATIONAL WEATHER SERVICE ALBUQUERQUE NM
300 PM MDT WED JUL 26 2017

NOTE: "FAIR" MEANS FEW OR NO CLOUDS BELOW 12,000 FEET AGL WITH NO
       SIGNIFICANT WEATHER OR OBSTRUCTIONS TO VISION.

      THIS PRODUCT IS RELEASED AS TWO VERSIONS.  ONE VERSION NEAR
      THE TOP OF THE HOUR CONTAINING PRELIMINARY DATA FROM ALBUQUERQUE
      AND OTHER STATIONS.  A FINAL VERSION WITH ADDITIONAL DATA IS
      ISSUED ABOUT 10 MINUTES AFTER THE HOUR.

NMZ501-503-504-510>518-262200-
NORTHWEST PLATEAU/NORTHCENTRAL MOUNTAINS

CITY           SKY/WX    TMP DP  RH WIND       PRES   REMARKS
FARMINGTON     FAIR      87  52  29 W10G22    30.23F
LOS ALAMOS     FAIR      76  52  42 CALM      30.35F
SANTA FE       FAIR      84  54  35 VRB7      30.25F
TAOS           FAIR      79  52  38 W15       30.32F
ANGEL FIRE     FAIR      76  51  41 NW9G20    30.41F

$$
NMZ402-403-502-505>509-262200-
WESTCENTRAL MOUNTAINS/SOUTHWEST MOUNTAINS

CITY           SKY/WX    TMP DP  RH WIND       PRES   REMARKS
GALLUP         FAIR      85  51  31 VRB6      30.31F
GRANTS         FAIR      87  47  24 NW8       30.30F
SILVER CITY    PTSUNNY   88  55  32 N12       30.20F

$$
NMZ407-409-411-412-262200-
SOUTHERN DESERTS

CITY           SKY/WX    TMP DP  RH WIND       PRES   REMARKS
DEMING         FAIR      94  55  26 NW7       30.09F
LAS CRUCES     FAIR      95  54  24 W5        30.11F
HOLLOMAN AFB   FAIR      94  52  23 W3        30.09F
ALAMOGORDO     FAIR      91  52  25 SW5       30.10S
T OR C         FAIR      93 N/A N/A VRB6      30.13F

$$
NMZ519>523-262200-
CENTRAL VALLEYS/CENTRAL HIGHLANDS

CITY           SKY/WX    TMP DP  RH WIND       PRES   REMARKS
ALBUQUERQUE    PTSUNNY   91  53  27 NW10      30.18F
DOUBLE EAGLE   PTSUNNY   88  54  31 VRB6      30.24F
MORIARTY ARPT  FAIR      90  51  25 N9G16     30.25F
CLINES CORNERS FAIR      87  47  24 W13G22    30.30F
BELEN          NOT AVBL
SOCORRO        FAIR      92  53  26 N6        30.14F

$$
NMZ524>526-539-540-262200-
SOUTHCENTRAL MOUNTAINS

CITY           SKY/WX    TMP DP  RH WIND       PRES   REMARKS
RUIDOSO        FAIR      77  57  50 W8        30.34F

$$
NMZ527>531-262200-
NORTHEAST HIGHLANDS/NORTHEAST PLAINS

CITY           SKY/WX    TMP DP  RH WIND       PRES   REMARKS
RATON          FAIR      82  58  43 E15G25    30.24F
CLAYTON        FAIR      93  56  28 E12G21    30.14F

$$
NMZ532>537-262200-
EASTCENTRAL PLAINS

CITY           SKY/WX    TMP DP  RH WIND       PRES   REMARKS
SANTA ROSA     FAIR      96  49  20 S3        30.08F
TUCUMCARI      FAIR     101  51  18 S10       30.01F HX  98
CANNON AFB       N/A     93  60  33 SE18G30   30.09F
CLOVIS AIRPORT PTSUNNY   85  64  49 S18G32    30.09F

$$
NMZ028-029-538-262200-
SOUTHEAST PLAINS

CITY           SKY/WX    TMP DP  RH WIND       PRES   REMARKS
ROSWELL        FAIR      99  51  19 SE6       30.02F HX  96
ARTESIA        FAIR      99  57  25 SE8G17    30.02F HX  97
CARLSBAD       FAIR      96  60  30 MISG      30.00F HX  96
HOBBS          MOSUNNY   95  55  26 SE9G17    30.07F


$$




USA.gov is the U.S. government's official web portal to all federal, state and local government web resources and services.